Year,Month,Day,Hour,Minute,Value (Times are PST for temperature in C)
2023,03,30,00,00,4.80
2023,03,30,00,01,4.80
2023,03,30,00,02,4.80
2023,03,30,00,03,4.80
2023,03,30,00,04,4.80
2023,03,30,00,05,4.80
2023,03,30,00,06,4.80
2023,03,30,00,07,4.80
2023,03,30,00,08,4.80
2023,03,30,00,09,4.80
2023,03,30,00,10,4.80
2023,03,30,00,11,4.80
2023,03,30,00,12,4.80
2023,03,30,00,13,4.80
2023,03,30,00,14,4.70
2023,03,30,00,15,4.70
2023,03,30,00,16,4.70
2023,03,30,00,17,4.70
2023,03,30,00,18,4.70
2023,03,30,00,19,4.70
2023,03,30,00,20,4.70
2023,03,30,00,21,4.70
2023,03,30,00,22,4.70
2023,03,30,00,23,4.70
2023,03,30,00,24,4.60
2023,03,30,00,25,4.60
2023,03,30,00,26,4.60
2023,03,30,00,27,4.60
2023,03,30,00,28,4.60
2023,03,30,00,29,4.60
2023,03,30,00,30,4.60
2023,03,30,00,31,4.60
2023,03,30,00,32,4.50
2023,03,30,00,33,4.50
2023,03,30,00,34,4.50
2023,03,30,00,35,4.50
2023,03,30,00,36,4.50
2023,03,30,00,37,4.40
2023,03,30,00,38,4.40
2023,03,30,00,39,4.40
2023,03,30,00,40,4.40
2023,03,30,00,41,4.40
2023,03,30,00,42,4.40
2023,03,30,00,43,4.30
2023,03,30,00,44,4.30
2023,03,30,00,45,4.30
2023,03,30,00,46,4.30
2023,03,30,00,47,4.30
2023,03,30,00,48,4.30
2023,03,30,00,49,4.30
2023,03,30,00,50,4.30
2023,03,30,00,51,4.30
2023,03,30,00,52,4.20
2023,03,30,00,53,4.20
2023,03,30,00,54,4.20
2023,03,30,00,55,4.20
2023,03,30,00,56,4.20
2023,03,30,00,57,4.20
2023,03,30,00,58,4.20
2023,03,30,00,59,4.20
2023,03,30,01,00,4.20
2023,03,30,01,01,4.20
2023,03,30,01,02,4.20
2023,03,30,01,03,4.20
2023,03,30,01,04,4.20
2023,03,30,01,05,4.20
2023,03,30,01,06,4.20
2023,03,30,01,07,4.20
2023,03,30,01,08,4.20
2023,03,30,01,09,4.20
2023,03,30,01,10,4.20
2023,03,30,01,11,4.20
2023,03,30,01,12,4.20
2023,03,30,01,13,4.10
2023,03,30,01,14,4.10
2023,03,30,01,15,4.10
2023,03,30,01,16,4.10
2023,03,30,01,17,4.10
2023,03,30,01,18,4.00
2023,03,30,01,19,4.00
2023,03,30,01,20,4.00
2023,03,30,01,21,4.00
2023,03,30,01,22,3.90
2023,03,30,01,23,3.90
2023,03,30,01,24,3.90
2023,03,30,01,25,3.90
2023,03,30,01,26,3.90
2023,03,30,01,27,3.90
2023,03,30,01,28,3.90
2023,03,30,01,29,3.90
2023,03,30,01,30,3.90
2023,03,30,01,31,3.90
2023,03,30,01,32,3.80
2023,03,30,01,33,3.80
2023,03,30,01,34,3.80
2023,03,30,01,35,3.80
2023,03,30,01,36,3.80
2023,03,30,01,37,3.80
2023,03,30,01,38,3.70
2023,03,30,01,39,3.70
2023,03,30,01,40,3.70
2023,03,30,01,41,3.70
2023,03,30,01,42,3.70
2023,03,30,01,43,3.60
2023,03,30,01,44,3.60
2023,03,30,01,45,3.60
2023,03,30,01,46,3.60
2023,03,30,01,47,3.60
2023,03,30,01,48,3.50
2023,03,30,01,49,3.50
2023,03,30,01,50,3.50
2023,03,30,01,51,3.50
2023,03,30,01,52,3.40
2023,03,30,01,53,3.40
2023,03,30,01,54,3.40
2023,03,30,01,55,3.40
2023,03,30,01,56,3.40
2023,03,30,01,57,3.30
2023,03,30,01,58,3.30
2023,03,30,01,59,3.30
2023,03,30,02,00,3.30
2023,03,30,02,01,3.30
2023,03,30,02,02,3.30
2023,03,30,02,03,3.30
2023,03,30,02,04,3.20
2023,03,30,02,05,3.20
2023,03,30,02,06,3.20
2023,03,30,02,07,3.20
2023,03,30,02,08,3.20
2023,03,30,02,09,3.20
2023,03,30,02,10,3.20
2023,03,30,02,11,3.20
2023,03,30,02,12,3.20
2023,03,30,02,13,3.10
2023,03,30,02,14,3.10
2023,03,30,02,15,3.10
2023,03,30,02,16,3.10
2023,03,30,02,17,3.10
2023,03,30,02,18,3.10
2023,03,30,02,19,3.10
2023,03,30,02,20,3.10
2023,03,30,02,21,3.10
2023,03,30,02,22,3.10
2023,03,30,02,23,3.10
2023,03,30,02,24,3.00
2023,03,30,02,25,3.00
2023,03,30,02,26,3.00
2023,03,30,02,27,3.00
2023,03,30,02,28,3.00
2023,03,30,02,29,3.00
2023,03,30,02,30,3.00
2023,03,30,02,31,3.00
2023,03,30,02,32,3.00
2023,03,30,02,33,2.90
2023,03,30,02,34,2.90
2023,03,30,02,35,2.90
2023,03,30,02,36,2.90
2023,03,30,02,37,2.90
2023,03,30,02,38,2.90
2023,03,30,02,39,2.90
2023,03,30,02,40,2.90
2023,03,30,02,41,2.90
2023,03,30,02,42,2.90
2023,03,30,02,43,2.90
2023,03,30,02,44,2.80
2023,03,30,02,45,2.80
2023,03,30,02,46,2.90
2023,03,30,02,47,2.80
2023,03,30,02,48,2.80
2023,03,30,02,49,2.80
2023,03,30,02,50,2.80
2023,03,30,02,51,2.80
2023,03,30,02,52,2.80
2023,03,30,02,53,2.80
2023,03,30,02,54,2.80
2023,03,30,02,55,2.80
2023,03,30,02,56,2.80
2023,03,30,02,57,2.80
2023,03,30,02,58,2.70
2023,03,30,02,59,2.70
2023,03,30,03,00,2.70
2023,03,30,03,01,2.70
2023,03,30,03,02,2.70
2023,03,30,03,03,2.70
2023,03,30,03,04,2.70
2023,03,30,03,05,2.70
2023,03,30,03,06,2.70
2023,03,30,03,07,2.70
2023,03,30,03,08,2.70
2023,03,30,03,09,2.60
2023,03,30,03,10,2.60
2023,03,30,03,11,2.60
2023,03,30,03,12,2.60
2023,03,30,03,13,2.60
2023,03,30,03,14,2.60
2023,03,30,03,15,2.60
2023,03,30,03,16,2.60
2023,03,30,03,17,2.60
2023,03,30,03,18,2.60
2023,03,30,03,19,2.50
2023,03,30,03,20,2.50
2023,03,30,03,21,2.50
2023,03,30,03,22,2.50
2023,03,30,03,23,2.50
2023,03,30,03,24,2.50
2023,03,30,03,25,2.50
2023,03,30,03,26,2.50
2023,03,30,03,27,2.50
2023,03,30,03,28,2.50
2023,03,30,03,29,2.40
2023,03,30,03,30,2.40
2023,03,30,03,31,2.40
2023,03,30,03,32,2.40
2023,03,30,03,33,2.40
2023,03,30,03,34,2.40
2023,03,30,03,35,2.40
2023,03,30,03,36,2.40
2023,03,30,03,37,2.40
2023,03,30,03,38,2.40
2023,03,30,03,39,2.40
2023,03,30,03,40,2.40
2023,03,30,03,41,2.40
2023,03,30,03,42,2.40
2023,03,30,03,43,2.40
2023,03,30,03,44,2.40
2023,03,30,03,45,2.40
2023,03,30,03,46,2.40
2023,03,30,03,47,2.40
2023,03,30,03,48,2.40
2023,03,30,03,49,2.40
2023,03,30,03,50,2.40
2023,03,30,03,51,2.40
2023,03,30,03,52,2.40
2023,03,30,03,53,2.40
2023,03,30,03,54,2.40
2023,03,30,03,55,2.40
2023,03,30,03,56,2.40
2023,03,30,03,57,2.40
2023,03,30,03,58,2.40
2023,03,30,03,59,2.40
2023,03,30,04,00,2.30
2023,03,30,04,01,2.30
2023,03,30,04,02,2.30
2023,03,30,04,03,2.30
2023,03,30,04,04,2.40
2023,03,30,04,05,2.40
2023,03,30,04,06,2.40
2023,03,30,04,07,2.30
2023,03,30,04,08,2.30
2023,03,30,04,09,2.30
2023,03,30,04,10,2.30
2023,03,30,04,11,2.30
2023,03,30,04,12,2.40
2023,03,30,04,13,2.40
2023,03,30,04,14,2.40
2023,03,30,04,15,2.50
2023,03,30,04,16,2.50
2023,03,30,04,17,2.50
2023,03,30,04,18,2.50
2023,03,30,04,19,2.50
2023,03,30,04,20,2.50
2023,03,30,04,21,2.50
2023,03,30,04,22,2.50
2023,03,30,04,23,2.50
2023,03,30,04,24,2.50
2023,03,30,04,25,2.50
2023,03,30,04,26,2.60
2023,03,30,04,27,2.60
2023,03,30,04,28,2.60
2023,03,30,04,29,2.60
2023,03,30,04,30,2.60
2023,03,30,04,31,2.60
2023,03,30,04,32,2.60
2023,03,30,04,33,2.60
2023,03,30,04,34,2.60
2023,03,30,04,35,2.60
2023,03,30,04,36,2.60
2023,03,30,04,37,2.50
2023,03,30,04,38,2.50
2023,03,30,04,39,2.50
2023,03,30,04,40,2.50
2023,03,30,04,41,2.50
2023,03,30,04,42,2.50
2023,03,30,04,43,2.50
2023,03,30,04,44,2.50
2023,03,30,04,45,2.50
2023,03,30,04,46,2.50
2023,03,30,04,47,2.50
2023,03,30,04,48,2.40
2023,03,30,04,49,2.40
2023,03,30,04,50,2.40
2023,03,30,04,51,2.40
2023,03,30,04,52,2.50
2023,03,30,04,53,2.50
2023,03,30,04,54,2.60
2023,03,30,04,55,2.60
2023,03,30,04,56,2.60
2023,03,30,04,57,2.60
2023,03,30,04,58,2.60
2023,03,30,04,59,2.60
2023,03,30,05,00,2.60
2023,03,30,05,01,2.60
2023,03,30,05,02,2.60
2023,03,30,05,03,2.60
2023,03,30,05,04,2.60
2023,03,30,05,05,2.60
2023,03,30,05,06,2.50
2023,03,30,05,07,2.50
2023,03,30,05,08,2.50
2023,03,30,05,09,2.50
2023,03,30,05,10,2.40
2023,03,30,05,11,2.40
2023,03,30,05,12,2.40
2023,03,30,05,13,2.40
2023,03,30,05,14,2.40
2023,03,30,05,15,2.40
2023,03,30,05,16,2.40
2023,03,30,05,17,2.40
2023,03,30,05,18,2.40
2023,03,30,05,19,2.40
2023,03,30,05,20,2.50
2023,03,30,05,21,2.60
2023,03,30,05,22,2.60
2023,03,30,05,23,2.60
2023,03,30,05,24,2.60
2023,03,30,05,25,2.70
2023,03,30,05,26,2.70
2023,03,30,05,27,2.70
2023,03,30,05,28,2.70
2023,03,30,05,29,2.80
2023,03,30,05,30,2.80
2023,03,30,05,31,2.80
2023,03,30,05,32,2.80
2023,03,30,05,33,2.80
2023,03,30,05,34,2.80
2023,03,30,05,35,2.80
2023,03,30,05,36,2.80
2023,03,30,05,37,2.80
2023,03,30,05,38,2.80
2023,03,30,05,39,2.80
2023,03,30,05,40,2.80
2023,03,30,05,41,2.80
2023,03,30,05,42,2.80
2023,03,30,05,43,2.80
2023,03,30,05,44,2.80
2023,03,30,05,45,2.80
2023,03,30,05,46,2.80
2023,03,30,05,47,2.80
2023,03,30,05,48,2.80
2023,03,30,05,49,2.80
2023,03,30,05,50,2.80
2023,03,30,05,51,2.80
2023,03,30,05,52,2.80
2023,03,30,05,53,2.80
2023,03,30,05,54,2.90
2023,03,30,05,55,2.90
2023,03,30,05,56,2.90
2023,03,30,05,57,2.90
2023,03,30,05,58,2.90
2023,03,30,05,59,2.90
2023,03,30,06,00,2.90
2023,03,30,06,01,2.90
2023,03,30,06,02,2.90
2023,03,30,06,03,2.90
2023,03,30,06,04,2.90
2023,03,30,06,05,2.90
2023,03,30,06,06,2.90
2023,03,30,06,07,2.90
2023,03,30,06,08,2.90
2023,03,30,06,09,2.80
2023,03,30,06,10,2.80
2023,03,30,06,11,2.80
2023,03,30,06,12,2.80
2023,03,30,06,13,2.80
2023,03,30,06,14,2.70
2023,03,30,06,15,2.70
2023,03,30,06,16,2.70
2023,03,30,06,17,2.70
2023,03,30,06,18,2.70
2023,03,30,06,19,2.70
2023,03,30,06,20,2.70
2023,03,30,06,21,2.70
2023,03,30,06,22,2.70
2023,03,30,06,23,2.70
2023,03,30,06,24,2.70
2023,03,30,06,25,2.70
2023,03,30,06,26,2.70
2023,03,30,06,27,2.70
2023,03,30,06,28,2.70
2023,03,30,06,29,2.60
2023,03,30,06,30,2.70
2023,03,30,06,31,2.60
2023,03,30,06,32,2.60
2023,03,30,06,33,2.60
2023,03,30,06,34,2.60
2023,03,30,06,35,2.60
2023,03,30,06,36,2.60
2023,03,30,06,37,2.60
2023,03,30,06,38,2.60
2023,03,30,06,39,2.60
2023,03,30,06,40,2.50
2023,03,30,06,41,2.50
2023,03,30,06,42,2.50
2023,03,30,06,43,2.50
2023,03,30,06,44,2.50
2023,03,30,06,45,2.50
2023,03,30,06,46,2.50
2023,03,30,06,47,2.40
2023,03,30,06,48,2.40
2023,03,30,06,49,2.40
2023,03,30,06,50,2.40
2023,03,30,06,51,2.40
2023,03,30,06,52,2.40
2023,03,30,06,53,2.40
2023,03,30,06,54,2.40
2023,03,30,06,55,2.30
2023,03,30,06,56,2.30
2023,03,30,06,57,2.30
2023,03,30,06,58,2.20
2023,03,30,06,59,2.20
2023,03,30,07,00,2.10
2023,03,30,07,01,2.10
2023,03,30,07,02,2.00
2023,03,30,07,03,2.00
2023,03,30,07,04,1.90
2023,03,30,07,05,1.90
2023,03,30,07,06,1.90
2023,03,30,07,07,1.80
2023,03,30,07,08,1.80
2023,03,30,07,09,1.80
2023,03,30,07,10,1.80
2023,03,30,07,11,1.80
2023,03,30,07,12,1.80
2023,03,30,07,13,1.80
2023,03,30,07,14,1.70
2023,03,30,07,15,1.70
2023,03,30,07,16,1.70
2023,03,30,07,17,1.70
2023,03,30,07,18,1.70
2023,03,30,07,19,1.60
2023,03,30,07,20,1.60
2023,03,30,07,21,1.60
2023,03,30,07,22,1.60
2023,03,30,07,23,1.60
2023,03,30,07,24,1.60
2023,03,30,07,25,1.60
2023,03,30,07,26,1.60
2023,03,30,07,27,1.60
2023,03,30,07,28,1.60
2023,03,30,07,29,1.60
2023,03,30,07,30,1.60
2023,03,30,07,31,1.60
2023,03,30,07,32,1.60
2023,03,30,07,33,1.60
2023,03,30,07,34,1.60
2023,03,30,07,35,1.60
2023,03,30,07,36,1.60
2023,03,30,07,37,1.60
2023,03,30,07,38,1.60
2023,03,30,07,39,1.60
2023,03,30,07,40,1.60
2023,03,30,07,41,1.60
2023,03,30,07,42,1.60
2023,03,30,07,43,1.60
2023,03,30,07,44,1.60
2023,03,30,07,45,1.60
2023,03,30,07,46,1.50
2023,03,30,07,47,1.50
2023,03,30,07,48,1.50
2023,03,30,07,49,1.50
2023,03,30,07,50,1.50
2023,03,30,07,51,1.50
2023,03,30,07,52,1.50
2023,03,30,07,53,1.50
2023,03,30,07,54,1.60
2023,03,30,07,55,1.60
2023,03,30,07,56,1.60
2023,03,30,07,57,1.60
2023,03,30,07,58,1.60
2023,03,30,07,59,1.60
2023,03,30,08,00,1.70
2023,03,30,08,01,1.70
2023,03,30,08,02,1.70
2023,03,30,08,03,1.80
2023,03,30,08,04,1.80
2023,03,30,08,05,1.80
2023,03,30,08,06,1.80
2023,03,30,08,07,1.80
2023,03,30,08,08,1.90
2023,03,30,08,09,1.90
2023,03,30,08,10,1.90
2023,03,30,08,11,2.00
2023,03,30,08,12,2.00
2023,03,30,08,13,2.00
2023,03,30,08,14,2.10
2023,03,30,08,15,2.10
2023,03,30,08,16,2.10
2023,03,30,08,17,2.10
2023,03,30,08,18,2.20
2023,03,30,08,19,2.20
2023,03,30,08,20,2.20
2023,03,30,08,21,2.30
2023,03,30,08,22,2.30
2023,03,30,08,23,2.30
2023,03,30,08,24,2.40
2023,03,30,08,25,2.40
2023,03,30,08,26,2.50
2023,03,30,08,27,2.50
2023,03,30,08,28,2.60
2023,03,30,08,29,2.60
2023,03,30,08,30,2.70
2023,03,30,08,31,2.80
2023,03,30,08,32,2.80
2023,03,30,08,33,2.90
2023,03,30,08,34,3.00
2023,03,30,08,35,3.10
2023,03,30,08,36,3.20
2023,03,30,08,37,3.20
2023,03,30,08,38,3.30
2023,03,30,08,39,3.30
2023,03,30,08,40,3.40
2023,03,30,08,41,3.40
2023,03,30,08,42,3.50
2023,03,30,08,43,3.50
2023,03,30,08,44,3.60
2023,03,30,08,45,3.60
2023,03,30,08,46,3.70
2023,03,30,08,47,3.70
2023,03,30,08,48,3.70
2023,03,30,08,49,3.80
2023,03,30,08,50,3.80
2023,03,30,08,51,3.80
2023,03,30,08,52,3.90
2023,03,30,08,53,4.00
2023,03,30,08,54,4.00
2023,03,30,08,55,4.10
2023,03,30,08,56,4.20
2023,03,30,08,57,4.30
2023,03,30,08,58,4.40
2023,03,30,08,59,4.50
2023,03,30,09,00,4.70
2023,03,30,09,01,4.80
2023,03,30,09,02,4.90
2023,03,30,09,03,5.00
2023,03,30,09,04,5.20
2023,03,30,09,05,5.30
2023,03,30,09,06,5.40
2023,03,30,09,07,5.60
2023,03,30,09,08,5.70
2023,03,30,09,09,5.80
2023,03,30,09,10,6.00
2023,03,30,09,11,6.10
2023,03,30,09,12,6.20
2023,03,30,09,13,6.40
2023,03,30,09,14,6.50
2023,03,30,09,15,6.70
2023,03,30,09,16,6.80
2023,03,30,09,17,6.80
2023,03,30,09,18,6.90
2023,03,30,09,19,7.00
2023,03,30,09,20,7.10
2023,03,30,09,21,7.20
2023,03,30,09,22,7.20
2023,03,30,09,23,7.30
2023,03,30,09,24,7.40
2023,03,30,09,25,7.60
2023,03,30,09,26,7.70
2023,03,30,09,27,7.90
2023,03,30,09,28,8.00
2023,03,30,09,29,8.20
2023,03,30,09,30,8.30
2023,03,30,09,31,8.40
2023,03,30,09,32,8.50
2023,03,30,09,33,8.70
2023,03,30,09,34,8.80
2023,03,30,09,35,8.90
2023,03,30,09,36,9.00
2023,03,30,09,37,9.20
2023,03,30,09,38,9.30
2023,03,30,09,39,9.30
2023,03,30,09,40,9.40
2023,03,30,09,41,9.40
2023,03,30,09,42,9.50
2023,03,30,09,43,9.60
2023,03,30,09,44,9.70
2023,03,30,09,45,9.80
2023,03,30,09,46,10.00
2023,03,30,09,47,10.10
2023,03,30,09,48,10.20
2023,03,30,09,49,10.30
2023,03,30,09,50,10.30
2023,03,30,09,51,10.30
2023,03,30,09,52,10.30
2023,03,30,09,53,10.40
2023,03,30,09,54,10.40
2023,03,30,09,55,10.50
2023,03,30,09,56,10.50
2023,03,30,09,57,10.60
2023,03,30,09,58,10.50
2023,03,30,09,59,10.50
2023,03,30,10,00,10.40
2023,03,30,10,01,10.40
2023,03,30,10,02,10.50
2023,03,30,10,03,10.50
2023,03,30,10,04,10.60
2023,03,30,10,05,10.60
2023,03,30,10,06,10.70
2023,03,30,10,07,10.70
2023,03,30,10,08,10.70
2023,03,30,10,09,10.70
2023,03,30,10,10,10.70
2023,03,30,10,11,10.70
2023,03,30,10,12,10.70
2023,03,30,10,13,10.70
2023,03,30,10,14,10.80
2023,03,30,10,15,10.80
2023,03,30,10,16,10.80
2023,03,30,10,17,10.90
2023,03,30,10,18,10.90
2023,03,30,10,19,11.00
2023,03,30,10,20,11.10
2023,03,30,10,21,11.10
2023,03,30,10,22,11.20
2023,03,30,10,23,11.20
2023,03,30,10,24,11.30
2023,03,30,10,25,11.30
2023,03,30,10,26,11.40
2023,03,30,10,27,11.40
2023,03,30,10,28,11.40
2023,03,30,10,29,11.40
2023,03,30,10,30,11.40
2023,03,30,10,31,11.40
2023,03,30,10,32,11.40
2023,03,30,10,33,11.40
2023,03,30,10,34,11.40
2023,03,30,10,35,11.40
2023,03,30,10,36,11.40
2023,03,30,10,37,11.40
2023,03,30,10,38,11.40
2023,03,30,10,39,11.50
2023,03,30,10,40,11.50
2023,03,30,10,41,11.60
2023,03,30,10,42,11.70
2023,03,30,10,43,11.80
2023,03,30,10,44,11.90
2023,03,30,10,45,12.00
2023,03,30,10,46,12.10
2023,03,30,10,47,12.10
2023,03,30,10,48,12.10
2023,03,30,10,49,12.00
2023,03,30,10,50,12.00
2023,03,30,10,51,12.00
2023,03,30,10,52,12.00
2023,03,30,10,53,11.90
2023,03,30,10,54,11.80
2023,03,30,10,55,11.80
2023,03,30,10,56,11.80
2023,03,30,10,57,11.90
2023,03,30,10,58,11.90
2023,03,30,10,59,11.90
2023,03,30,11,00,11.90
2023,03,30,11,01,11.90
2023,03,30,11,02,11.90
2023,03,30,11,03,11.90
2023,03,30,11,04,11.90
2023,03,30,11,05,11.90
2023,03,30,11,06,11.90
2023,03,30,11,07,11.90
2023,03,30,11,08,12.00
2023,03,30,11,09,12.00
2023,03,30,11,10,12.00
2023,03,30,11,11,12.00
2023,03,30,11,12,12.00
2023,03,30,11,13,12.00
2023,03,30,11,14,12.10
2023,03,30,11,15,12.10
2023,03,30,11,16,12.10
2023,03,30,11,17,12.10
2023,03,30,11,18,12.10
2023,03,30,11,19,12.10
2023,03,30,11,20,12.10
2023,03,30,11,21,12.20
2023,03,30,11,22,12.10
2023,03,30,11,23,12.20
2023,03,30,11,24,12.30
2023,03,30,11,25,12.30
2023,03,30,11,26,12.40
2023,03,30,11,27,12.40
2023,03,30,11,28,12.50
2023,03,30,11,29,12.50
2023,03,30,11,30,12.60
2023,03,30,11,31,12.60
2023,03,30,11,32,12.60
2023,03,30,11,33,12.70
2023,03,30,11,34,12.70
2023,03,30,11,35,12.70
2023,03,30,11,36,12.80
2023,03,30,11,37,12.80
2023,03,30,11,38,12.80
2023,03,30,11,39,12.80
2023,03,30,11,40,12.90
2023,03,30,11,41,12.90
2023,03,30,11,42,13.00
2023,03,30,11,43,12.90
2023,03,30,11,44,12.90
2023,03,30,11,45,12.90
2023,03,30,11,46,13.00
2023,03,30,11,47,13.00
2023,03,30,11,48,13.10
2023,03,30,11,49,13.10
2023,03,30,11,50,13.20
2023,03,30,11,51,13.30
2023,03,30,11,52,13.30
2023,03,30,11,53,13.20
2023,03,30,11,54,13.20
2023,03,30,11,55,13.20
2023,03,30,11,56,13.20
2023,03,30,11,57,13.20
2023,03,30,11,58,13.10
2023,03,30,11,59,13.20
2023,03,30,12,00,13.10
2023,03,30,12,01,12.90
2023,03,30,12,02,12.90
2023,03,30,12,03,12.80
2023,03,30,12,04,12.80
2023,03,30,12,05,12.80
2023,03,30,12,06,12.80
2023,03,30,12,07,12.80
2023,03,30,12,08,12.80
2023,03,30,12,09,12.80
2023,03,30,12,10,12.80
2023,03,30,12,11,12.80
2023,03,30,12,12,12.80
2023,03,30,12,13,12.80
2023,03,30,12,14,12.90
2023,03,30,12,15,12.90
2023,03,30,12,16,13.00
2023,03,30,12,17,13.00
2023,03,30,12,18,13.00
2023,03,30,12,19,13.00
2023,03,30,12,20,13.00
2023,03,30,12,21,13.00
2023,03,30,12,22,12.90
2023,03,30,12,23,12.90
2023,03,30,12,24,12.80
2023,03,30,12,25,12.80
2023,03,30,12,26,12.70
2023,03,30,12,27,12.60
2023,03,30,12,28,12.60
2023,03,30,12,29,12.60
2023,03,30,12,30,12.70
2023,03,30,12,31,12.70
2023,03,30,12,32,12.80
2023,03,30,12,33,12.90
2023,03,30,12,34,13.00
2023,03,30,12,35,13.00
2023,03,30,12,36,13.00
2023,03,30,12,37,13.10
2023,03,30,12,38,13.10
2023,03,30,12,39,13.10
2023,03,30,12,40,13.10
2023,03,30,12,41,13.10
2023,03,30,12,42,13.10
2023,03,30,12,43,13.00
2023,03,30,12,44,13.00
2023,03,30,12,45,13.00
2023,03,30,12,46,13.10
2023,03,30,12,47,13.30
2023,03,30,12,48,13.40
2023,03,30,12,49,13.60
2023,03,30,12,50,13.60
2023,03,30,12,51,13.60
2023,03,30,12,52,13.70
2023,03,30,12,53,13.70
2023,03,30,12,54,13.70
2023,03,30,12,55,13.80
2023,03,30,12,56,13.80
2023,03,30,12,57,13.80
2023,03,30,12,58,13.70
2023,03,30,12,59,13.60
2023,03,30,13,00,13.50
2023,03,30,13,01,13.40
2023,03,30,13,02,13.40
2023,03,30,13,03,13.50
2023,03,30,13,04,13.50
2023,03,30,13,05,13.50
2023,03,30,13,06,13.50
2023,03,30,13,07,13.40
2023,03,30,13,08,13.50
2023,03,30,13,09,13.50
2023,03,30,13,10,13.60
2023,03,30,13,11,13.50
2023,03,30,13,12,13.60
2023,03,30,13,13,13.50
2023,03,30,13,14,13.50
2023,03,30,13,15,13.50
2023,03,30,13,16,13.50
2023,03,30,13,17,13.50
2023,03,30,13,18,13.40
2023,03,30,13,19,13.40
2023,03,30,13,20,13.30
2023,03,30,13,21,13.30
2023,03,30,13,22,13.30
2023,03,30,13,23,13.30
2023,03,30,13,24,13.20
2023,03,30,13,25,13.20
2023,03,30,13,26,13.20
2023,03,30,13,27,13.20
2023,03,30,13,28,13.10
2023,03,30,13,29,13.10
2023,03,30,13,30,13.20
2023,03,30,13,31,13.20
2023,03,30,13,32,13.40
2023,03,30,13,33,13.50
2023,03,30,13,34,13.60
2023,03,30,13,35,13.70
2023,03,30,13,36,13.80
2023,03,30,13,37,13.80
2023,03,30,13,38,13.80
2023,03,30,13,39,13.80
2023,03,30,13,40,13.80
2023,03,30,13,41,13.80
2023,03,30,13,42,13.80
2023,03,30,13,43,13.80
2023,03,30,13,44,13.90
2023,03,30,13,45,13.90
2023,03,30,13,46,13.90
2023,03,30,13,47,13.90
2023,03,30,13,48,13.90
2023,03,30,13,49,13.90
2023,03,30,13,50,13.80
2023,03,30,13,51,13.70
2023,03,30,13,52,13.60
2023,03,30,13,53,13.60
2023,03,30,13,54,13.60
2023,03,30,13,55,13.60
2023,03,30,13,56,13.60
2023,03,30,13,57,13.50
2023,03,30,13,58,13.50
2023,03,30,13,59,13.40
2023,03,30,14,00,13.30
2023,03,30,14,01,13.30
2023,03,30,14,02,13.30
2023,03,30,14,03,13.30
2023,03,30,14,04,13.20
2023,03,30,14,05,13.20
2023,03,30,14,06,13.20
2023,03,30,14,07,13.20
2023,03,30,14,08,13.10
2023,03,30,14,09,13.20
2023,03,30,14,10,13.20
2023,03,30,14,11,13.20
2023,03,30,14,12,13.20
2023,03,30,14,13,13.20
2023,03,30,14,14,13.20
2023,03,30,14,15,13.20
2023,03,30,14,16,13.20
2023,03,30,14,17,13.20
2023,03,30,14,18,13.20
2023,03,30,14,19,13.20
2023,03,30,14,20,13.30
2023,03,30,14,21,13.30
2023,03,30,14,22,13.30
2023,03,30,14,23,13.20
2023,03,30,14,24,13.20
2023,03,30,14,25,13.20
2023,03,30,14,26,13.10
2023,03,30,14,27,13.10
2023,03,30,14,28,13.10
2023,03,30,14,29,13.00
2023,03,30,14,30,12.90
2023,03,30,14,31,12.90
2023,03,30,14,32,12.90
2023,03,30,14,33,12.90
2023,03,30,14,34,13.00
2023,03,30,14,35,13.00
2023,03,30,14,36,13.00
2023,03,30,14,37,13.00
2023,03,30,14,38,12.90
2023,03,30,14,39,12.90
2023,03,30,14,40,12.90
2023,03,30,14,41,12.80
2023,03,30,14,42,12.80
2023,03,30,14,43,12.80
2023,03,30,14,44,12.70
2023,03,30,14,45,12.70
2023,03,30,14,46,12.60
2023,03,30,14,47,12.60
2023,03,30,14,48,12.50
2023,03,30,14,49,12.40
2023,03,30,14,50,12.40
2023,03,30,14,51,12.30
2023,03,30,14,52,12.30
2023,03,30,14,53,12.30
2023,03,30,14,54,12.30
2023,03,30,14,55,12.30
2023,03,30,14,56,12.30
2023,03,30,14,57,12.30
2023,03,30,14,58,12.30
2023,03,30,14,59,12.30
2023,03,30,15,00,12.30
2023,03,30,15,01,12.30
2023,03,30,15,02,12.30
2023,03,30,15,03,12.30
2023,03,30,15,04,12.30
2023,03,30,15,05,12.20
2023,03,30,15,06,12.20
2023,03,30,15,07,12.20
2023,03,30,15,08,12.20
2023,03,30,15,09,12.20
2023,03,30,15,10,12.10
2023,03,30,15,11,12.10
2023,03,30,15,12,12.00
2023,03,30,15,13,12.00
2023,03,30,15,14,11.90
2023,03,30,15,15,11.90
2023,03,30,15,16,11.90
2023,03,30,15,17,11.90
2023,03,30,15,18,12.00
2023,03,30,15,19,12.00
2023,03,30,15,20,12.00
2023,03,30,15,21,12.00
2023,03,30,15,22,12.00
2023,03,30,15,23,11.90
2023,03,30,15,24,11.90
2023,03,30,15,25,11.90
2023,03,30,15,26,11.90
2023,03,30,15,27,11.90
2023,03,30,15,28,11.90
2023,03,30,15,29,11.90
2023,03,30,15,30,11.90
2023,03,30,15,31,12.00
2023,03,30,15,32,12.00
2023,03,30,15,33,12.00
2023,03,30,15,34,12.10
2023,03,30,15,35,12.10
2023,03,30,15,36,12.10
2023,03,30,15,37,12.10
2023,03,30,15,38,12.00
2023,03,30,15,39,12.00
2023,03,30,15,40,11.90
2023,03,30,15,41,11.90
2023,03,30,15,42,11.80
2023,03,30,15,43,11.80
2023,03,30,15,44,11.80
2023,03,30,15,45,11.80
2023,03,30,15,46,11.80
2023,03,30,15,47,11.80
2023,03,30,15,48,11.80
2023,03,30,15,49,11.80
2023,03,30,15,50,11.80
2023,03,30,15,51,11.80
2023,03,30,15,52,11.80
2023,03,30,15,53,11.80
2023,03,30,15,54,11.80
2023,03,30,15,55,11.80
2023,03,30,15,56,11.80
2023,03,30,15,57,11.80
2023,03,30,15,58,11.80
2023,03,30,15,59,11.80
2023,03,30,16,00,11.80
2023,03,30,16,01,11.80
2023,03,30,16,02,11.80
2023,03,30,16,03,11.80
2023,03,30,16,04,11.80
2023,03,30,16,05,11.70
2023,03,30,16,06,11.60
2023,03,30,16,07,11.60
2023,03,30,16,08,11.50
2023,03,30,16,09,11.50
2023,03,30,16,10,11.40
2023,03,30,16,11,11.40
2023,03,30,16,12,11.30
2023,03,30,16,13,11.30
2023,03,30,16,14,11.20
2023,03,30,16,15,11.20
2023,03,30,16,16,11.10
2023,03,30,16,17,11.10
2023,03,30,16,18,11.10
2023,03,30,16,19,11.00
2023,03,30,16,20,11.00
2023,03,30,16,21,11.00
2023,03,30,16,22,11.00
2023,03,30,16,23,11.00
2023,03,30,16,24,11.00
2023,03,30,16,25,11.00
2023,03,30,16,26,11.00
2023,03,30,16,27,11.00
2023,03,30,16,28,11.00
2023,03,30,16,29,11.00
2023,03,30,16,30,11.00
2023,03,30,16,31,11.00
2023,03,30,16,32,11.10
2023,03,30,16,33,11.10
2023,03,30,16,34,11.10
2023,03,30,16,35,11.20
2023,03,30,16,36,11.20
2023,03,30,16,37,11.20
2023,03,30,16,38,11.20
2023,03,30,16,39,11.20
2023,03,30,16,40,11.20
2023,03,30,16,41,11.30
2023,03,30,16,42,11.30
2023,03,30,16,43,11.30
2023,03,30,16,44,11.30
2023,03,30,16,45,11.30
2023,03,30,16,46,11.30
2023,03,30,16,47,11.30
2023,03,30,16,48,11.30
2023,03,30,16,49,11.30
2023,03,30,16,50,11.30
2023,03,30,16,51,11.30
2023,03,30,16,52,11.20
2023,03,30,16,53,11.20
2023,03,30,16,54,11.20
2023,03,30,16,55,11.20
2023,03,30,16,56,11.20
2023,03,30,16,57,11.10
2023,03,30,16,58,11.10
2023,03,30,16,59,11.10
2023,03,30,17,00,11.10
2023,03,30,17,01,11.00
2023,03,30,17,02,11.00
2023,03,30,17,03,10.90
2023,03,30,17,04,10.90
2023,03,30,17,05,10.90
2023,03,30,17,06,10.90
2023,03,30,17,07,10.80
2023,03,30,17,08,10.80
2023,03,30,17,09,10.80
2023,03,30,17,10,10.80
2023,03,30,17,11,10.80
2023,03,30,17,12,10.70
2023,03,30,17,13,10.70
2023,03,30,17,14,10.70
2023,03,30,17,15,10.60
2023,03,30,17,16,10.60
2023,03,30,17,17,10.60
2023,03,30,17,18,10.50
2023,03,30,17,19,10.50
2023,03,30,17,20,10.50
2023,03,30,17,21,10.50
2023,03,30,17,22,10.40
2023,03,30,17,23,10.40
2023,03,30,17,24,10.40
2023,03,30,17,25,10.40
2023,03,30,17,26,10.40
2023,03,30,17,27,10.40
2023,03,30,17,28,10.30
2023,03,30,17,29,10.30
2023,03,30,17,30,10.30
2023,03,30,17,31,10.30
2023,03,30,17,32,10.30
2023,03,30,17,33,10.30
2023,03,30,17,34,10.30
2023,03,30,17,35,10.30
2023,03,30,17,36,10.30
2023,03,30,17,37,10.30
2023,03,30,17,38,10.30
2023,03,30,17,39,10.30
2023,03,30,17,40,10.30
2023,03,30,17,41,10.30
2023,03,30,17,42,10.20
2023,03,30,17,43,10.20
2023,03,30,17,44,10.20